Tracking 35237 objects as of 6-Sep-2026
HD Live streaming from Space Station
objects crossing your sky now

STARLINK-35344

Track STARLINK-35344 now!
10-day predictions
STARLINK-35344 is classified as:


NORAD ID: 65656
Int'l Code: 2025-211E
Launch date: September 19, 2025
Source: United States (US)
Launch site: AIR FORCE WESTERN TEST RANGE (AFWTR)
Your satellite tracking list
Your tracking list is empty




NASA's NSSDC Master Catalog

Two Line Element Set (TLE):
1 65656U 25211E   26248.59944207  .00009650  00000-0  30078-3 0  9992
2 65656  97.2860 289.1015 0001420 128.0808 232.0563 15.33451744 54245
Source of the keplerian elements: AFSPC